Date,TemperatureHighF,TemperatureAvgF,TemperatureLowF,DewpointHighF,DewpointAvgF,DewpointLowF,HumidityHigh,HumidityAvg,HumidityLow,PressureMaxIn,PressureMinIn,WindSpeedMaxMPH,WindSpeedAvgMPH,GustSpeedMaxMPH,PrecipitationSumIn
2013-1-1,38,34,25,30,26,15,87,73,61,30.02,29.84,12,6,17,0.02
2013-1-2,32,25,16,19,16,12,87,68,55,30.19,30.00,13,4,18,0.01
2013-1-3,32,26,17,22,17,13,88,70,56,30.20,30.07,11,3,14,0.00
2013-1-4,36,33,30,25,23,20,75,66,60,30.09,29.97,14,6,22,0.00
2013-1-5,43,32,23,25,22,19,92,67,49,30.29,30.03,12,5,19,0.00
2013-1-6,45,36,28,31,29,25,90,75,57,30.21,29.98,13,3,17,0.00
2013-1-7,45,36,22,31,27,20,93,73,50,30.39,30.06,13,3,15,0.00
2013-1-8,47,29,18,33,24,16,93,85,55,30.40,30.34,7,1,11,0.00
2013-1-9,44,33,20,38,29,18,93,87,71,30.39,30.15,12,2,18,0.01
2013-1-10,49,39,29,33,29,25,89,68,46,30.53,30.25,16,4,22,0.01
2013-1-11,43,39,28,40,36,26,93,89,76,30.52,30.08,11,2,11,0.45
2013-1-12,45,42,37,43,40,35,94,92,91,30.16,30.08,6,1,7,0.00
2013-1-13,46,44,42,44,42,39,92,92,92,30.14,29.97,4,1,7,0.01
2013-1-14,58,48,38,52,42,33,94,82,59,30.28,29.85,13,4,17,0.07
2013-1-15,38,35,33,33,30,28,92,82,73,30.34,30.19,8,2,12,0.11
2013-1-16,34,32,31,33,31,30,94,94,91,30.20,29.80,6,0,7,0.31
2013-1-17,43,36,32,34,31,27,94,81,65,30.09,29.92,12,3,16,0.29
2013-1-18,32,27,21,28,16,8,84,63,41,30.46,29.99,18,5,25,0.00
2013-1-19,49,37,21,30,25,13,81,64,44,30.39,29.90,9,2,13,0.09
2013-1-20,52,39,27,34,24,12,86,56,30,30.04,29.71,25,7,31,0.00
2013-1-21,29,26,22,20,14,9,81,61,49,30.08,29.85,15,2,22,0.00
2013-1-22,24,16,11,10,1,-5,62,50,38,30.23,29.85,21,9,29,0.00
2013-1-23,20,11,3,3,0,-5,87,62,39,30.26,30.18,14,5,22,0.00
2013-1-24,24,13,2,9,2,-2,90,64,34,30.45,30.13,19,6,26,0.00
2013-1-25,22,14,3,14,5,-2,89,68,49,30.44,30.07,13,2,16,0.00
2013-1-26,28,15,0,14,6,-4,91,71,48,30.40,30.06,16,4,21,0.01
2013-1-27,36,19,4,18,11,1,89,71,40,30.55,30.39,12,2,17,0.01
2013-1-28,33,28,14,32,25,10,93,90,82,30.50,30.01,6,1,10,0.00
2013-1-29,52,42,33,46,39,32,94,90,78,30.14,30.01,7,2,10,0.21
2013-1-30,64,50,43,60,48,41,93,91,83,30.04,29.30,13,2,18,0.43
2013-1-31,60,41,26,58,30,11,94,66,43,29.79,29.04,27,10,44,1.12
2013-2-1,29,25,20,19,14,9,80,61,44,30.24,29.78,18,7,24,0.00
2013-2-2,26,20,15,20,12,6,92,70,50,30.30,30.04,14,3,17,0.00
2013-2-3,30,22,13,23,18,10,94,86,72,30.04,29.80,10,1,17,0.07
2013-2-4,29,23,19,20,14,11,85,67,50,30.00,29.83,14,5,20,0.00
2013-2-5,32,28,23,27,24,17,93,86,74,29.96,29.88,4,1,6,0.02
2013-2-6,38,31,22,27,23,14,94,74,53,30.34,29.91,16,4,22,0.03
2013-2-7,33,25,15,22,16,11,89,68,52,30.49,30.30,7,2,12,0.01
2013-2-8,34,32,29,32,29,22,93,88,72,30.30,29.68,9,5,14,0.07
2013-2-9,34,26,18,29,17,7,93,68,43,30.37,29.76,21,8,29,0.10
2013-2-10,43,23,3,20,11,-1,90,63,28,30.48,30.30,6,1,10,0.06
2013-2-11,40,35,30,39,32,19,94,89,64,30.31,29.66,6,1,9,0.06
2013-2-12,42,38,32,36,27,24,93,64,56,29.98,29.74,19,7,24,0.00
2013-2-13,44,33,19,31,26,17,93,78,53,29.95,29.67,5,1,8,0.00
2013-2-14,44,33,25,36,28,23,94,84,56,29.99,29.71,11,1,13,0.01
2013-2-15,53,39,25,37,30,23,93,73,41,30.00,29.91,15,3,21,0.11
2013-2-16,35,32,27,32,25,14,93,77,56,29.97,29.77,15,5,20,0.06
2013-2-17,31,25,17,14,8,2,58,50,38,30.06,29.73,28,11,33,0.06
2013-2-18,35,24,15,19,9,2,76,55,37,30.29,30.06,18,6,25,0.00
2013-2-19,40,33,22,38,27,15,93,80,61,30.18,29.69,14,2,20,0.41
2013-2-20,34,28,23,26,16,11,71,61,51,30.02,29.75,21,10,30,0.41
2013-2-21,35,27,20,19,15,11,76,62,49,30.31,30.00,19,9,25,0.00
2013-2-22,36,25,18,29,19,14,86,77,61,30.40,30.24,8,2,11,0.00
2013-2-23,42,38,33,40,36,29,93,92,86,30.24,29.81,6,2,11,0.16
2013-2-24,45,35,32,40,29,23,94,78,66,30.00,29.77,14,6,20,0.17
2013-2-25,43,34,24,32,27,22,93,76,61,30.24,30.00,13,3,15,0.00
2013-2-26,43,33,23,34,29,21,93,83,66,30.26,29.83,14,4,21,0.22
2013-2-27,46,42,35,44,38,33,93,88,78,29.84,29.50,14,5,28,0.24
2013-2-28,45,38,33,37,32,30,94,81,61,29.63,29.55,9,3,15,0.00
2013-3-1,44,37,31,33,30,25,92,75,61,29.81,29.62,16,6,20,0.00
2013-3-2,38,33,29,27,24,21,76,70,61,29.81,29.72,13,6,17,0.00
2013-3-3,37,30,27,23,20,18,72,66,55,29.80,29.71,15,8,21,0.00
2013-3-4,43,33,27,24,21,18,71,61,44,29.94,29.80,16,10,24,0.00
2013-3-5,52,37,30,30,25,22,87,64,40,30.02,29.94,17,4,23,0.00
2013-3-6,43,38,30,36,31,27,90,77,69,29.96,29.82,16,8,31,0.03
2013-3-7,45,38,32,34,29,26,92,72,54,30.09,29.95,17,8,24,0.01
2013-3-8,46,34,29,33,29,25,93,81,62,30.23,30.04,14,7,20,0.19
2013-3-9,62,41,27,34,26,21,89,59,24,30.31,30.20,10,3,13,0.00
2013-3-10,58,40,24,37,30,22,93,71,38,30.36,30.24,8,3,15,0.00
2013-3-11,56,45,36,48,40,33,93,84,59,30.31,30.03,9,3,13,0.00
2013-3-12,58,51,43,55,48,36,93,89,78,30.03,29.65,15,6,20,1.17
2013-3-13,48,41,32,37,31,23,89,70,45,29.90,29.80,18,6,21,0.86
2013-3-14,42,34,29,22,14,9,64,43,29,29.98,29.86,20,9,29,0.00
2013-3-15,46,37,26,32,22,12,65,56,45,30.00,29.71,14,6,20,0.00
2013-3-16,42,33,27,31,28,22,92,80,63,29.92,29.75,11,2,16,0.08
2013-3-17,38,31,25,30,23,19,93,72,50,30.30,29.91,13,4,21,0.01
2013-3-18,36,28,18,30,22,13,93,78,54,30.38,29.95,10,3,16,0.00
2013-3-19,49,38,33,39,32,19,93,80,47,29.95,29.68,16,4,24,0.67
2013-3-20,45,36,30,27,21,17,82,57,36,29.89,29.77,18,6,25,0.00
2013-3-21,40,33,28,29,21,14,91,63,38,29.83,29.63,14,6,20,0.00
2013-3-22,40,33,25,24,21,13,74,62,45,29.90,29.74,16,6,22,0.00
2013-3-23,46,37,30,25,22,19,70,55,37,29.95,29.85,17,7,23,0.00
2013-3-24,49,38,26,27,23,18,73,55,36,29.95,29.68,14,4,27,0.00
2013-3-25,39,36,33,36,31,26,93,83,64,29.68,29.47,11,3,14,0.13
2013-3-26,53,41,33,37,32,26,93,72,39,29.88,29.61,14,4,21,0.00
2013-3-27,53,40,25,34,29,22,89,66,35,30.01,29.88,17,5,23,0.00
2013-3-28,48,40,25,34,30,23,93,67,49,30.14,29.98,14,5,18,0.00
2013-3-29,54,44,29,33,30,25,86,60,41,30.16,30.08,16,4,20,0.00
2013-3-30,60,41,24,35,26,20,93,61,22,30.18,30.06,13,2,17,0.00
2013-3-31,58,41,25,43,33,22,93,76,40,30.11,29.69,14,3,20,0.16
2013-4-1,60,46,34,48,35,14,93,69,33,29.92,29.63,22,6,28,0.03
2013-4-2,43,33,22,21,16,12,76,51,30,30.09,29.92,20,6,26,0.00
2013-4-3,46,35,24,19,14,10,66,43,28,30.32,30.09,18,6,25,0.00
2013-4-4,55,40,22,30,21,14,76,48,31,30.39,30.06,11,3,15,0.00
2013-4-5,63,48,31,31,25,19,83,45,21,30.06,29.74,21,6,28,0.00
2013-4-6,54,42,31,25,18,13,60,40,21,30.29,30.02,14,5,22,0.00
2013-4-7,64,51,34,43,36,24,79,59,40,30.28,29.97,12,4,19,0.00
2013-4-8,78,60,38,51,45,36,92,62,28,30.07,29.93,10,2,17,0.00
2013-4-9,82,67,48,55,46,37,92,55,20,29.96,29.86,20,4,29,0.00
2013-4-10,86,67,54,62,54,47,92,67,38,29.92,29.76,21,3,31,0.76
2013-4-11,60,55,47,57,51,43,92,87,74,29.98,29.75,11,4,17,0.01
2013-4-12,47,43,41,43,41,39,93,90,78,29.95,29.70,14,5,22,0.42
2013-4-13,58,47,36,42,38,34,93,73,47,29.96,29.74,14,3,18,0.10
2013-4-14,60,49,37,41,35,30,92,63,35,30.18,29.95,16,4,21,0.00
2013-4-15,62,50,39,44,36,30,82,58,45,30.34,30.18,11,3,15,0.00
2013-4-16,70,58,46,59,50,37,88,74,62,30.33,30.08,9,3,13,0.00
2013-4-17,75,61,50,57,44,33,91,58,23,30.26,30.09,11,3,15,0.00
2013-4-18,57,51,41,52,46,38,92,82,64,30.29,30.05,11,4,17,0.00
2013-4-19,78,65,54,68,60,50,92,85,65,30.05,29.57,20,4,31,0.83
2013-4-20,57,50,41,51,36,24,91,61,38,30.31,29.69,18,8,24,0.10
2013-4-21,58,44,33,32,26,20,75,50,28,30.60,30.31,13,4,18,0.00
2013-4-22,56,43,29,38,33,27,92,69,47,30.62,30.46,13,3,18,0.00
2013-4-23,50,43,35,42,37,32,92,78,67,30.46,30.12,7,3,12,0.00
2013-4-24,73,54,31,56,46,29,93,76,52,30.12,29.78,9,2,16,0.00
2013-4-25,64,52,37,56,34,25,83,52,26,30.25,29.84,19,6,27,0.00
2013-4-26,67,49,30,40,32,24,92,59,20,30.40,30.25,13,3,16,0.00
2013-4-27,71,52,31,41,35,28,92,57,26,30.42,30.24,10,1,20,0.00
2013-4-28,72,56,35,48,39,32,92,58,34,30.29,30.15,9,2,14,0.00
2013-4-29,54,52,50,50,49,39,92,89,56,30.21,30.13,13,3,17,0.13
2013-4-30,67,56,40,52,43,23,92,67,26,30.31,30.17,11,2,15,0.00
2013-5-1,70,52,32,46,37,29,92,61,23,30.46,30.31,9,2,15,0.00
2013-5-2,75,55,32,52,42,30,92,66,33,30.45,30.30,8,1,12,0.00
2013-5-3,68,56,43,44,40,33,87,58,29,30.42,30.31,10,3,16,0.00
2013-5-4,72,54,34,48,41,32,92,66,33,30.35,30.18,8,2,16,1.06
2013-5-5,68,52,37,47,41,34,91,69,37,30.27,30.17,8,2,12,0.00
2013-5-6,71,55,36,57,47,33,92,77,55,30.24,30.11,6,2,12,0.00
2013-5-7,74,60,42,60,52,40,92,77,56,30.15,30.05,7,2,14,0.01
2013-5-8,70,61,56,63,58,53,92,89,73,30.07,29.90,8,2,13,1.69
2013-5-9,70,60,54,61,55,51,92,84,64,29.96,29.88,7,1,9,0.05
2013-5-10,79,64,48,64,56,45,92,77,46,30.00,29.87,11,1,14,0.14
2013-5-11,72,64,57,66,61,54,92,89,76,29.90,29.67,9,1,13,0.60
2013-5-12,64,57,47,54,42,29,93,61,33,29.94,29.66,18,6,28,0.01
2013-5-13,55,45,34,36,32,28,92,62,39,30.12,29.94,12,4,21,0.00
2013-5-14,62,46,29,38,31,25,93,63,26,30.15,30.01,10,2,16,0.00
2013-5-15,75,58,38,60,49,35,92,75,57,30.06,29.67,9,1,12,0.00
2013-5-16,84,65,50,62,53,44,92,70,27,29.84,29.70,14,2,18,0.00
2013-5-17,75,62,48,50,44,41,88,54,30,30.18,29.84,12,4,15,0.00
2013-5-18,64,56,47,57,51,44,92,84,66,30.27,30.18,4,1,8,0.01
2013-5-19,62,58,55,59,55,52,92,91,87,30.27,30.14,8,2,13,0.13
2013-5-20,80,66,57,69,61,54,93,84,68,30.16,29.94,7,1,10,0.00
2013-5-21,88,72,57,75,66,55,92,81,60,29.96,29.82,9,1,13,0.00
2013-5-22,87,74,62,76,68,59,92,83,63,29.89,29.78,9,1,10,0.01
2013-5-23,78,69,62,72,66,60,92,89,72,29.86,29.72,11,1,14,2.34
2013-5-24,62,53,43,60,49,40,92,88,76,29.99,29.68,16,6,25,0.20
2013-5-25,58,49,43,44,40,34,92,73,47,30.03,29.94,20,8,34,0.21
2013-5-26,68,56,43,43,39,35,85,55,31,30.20,30.00,16,7,24,0.00
2013-5-27,73,55,34,50,42,32,93,66,30,30.25,30.12,10,2,14,0.00
2013-5-28,59,54,45,56,51,42,92,91,82,30.20,30.10,6,0,10,0.25
2013-5-29,86,69,57,74,62,54,92,81,58,30.11,29.98,8,1,12,0.01
2013-5-30,91,76,60,72,65,58,92,72,41,30.12,30.04,8,1,12,0.00
2013-5-31,92,77,61,74,65,58,91,71,38,30.10,29.97,7,1,12,0.00
2013-6-1,91,76,60,75,67,57,92,75,52,30.00,29.87,8,1,12,0.00
2013-6-2,86,77,70,74,70,66,91,79,61,29.88,29.74,11,2,17,0.19
2013-6-3,82,72,63,70,65,52,92,79,56,29.89,29.77,9,2,12,0.22
2013-6-4,77,64,51,53,48,43,90,60,31,30.10,29.89,10,4,15,0.01
2013-6-5,76,62,44,55,49,42,92,66,39,30.19,30.07,5,1,8,0.00
2013-6-6,70,60,50,60,55,48,92,83,58,30.12,29.96,8,2,14,0.24
2013-6-7,64,61,59,61,59,56,92,91,91,29.96,29.61,11,2,14,1.70
2013-6-8,77,66,57,66,61,55,93,84,63,30.05,29.61,12,3,15,0.08
2013-6-9,82,68,52,67,59,50,92,77,47,30.16,30.05,7,1,12,0.01
2013-6-10,69,65,61,66,62,59,92,91,89,30.13,29.76,7,1,12,1.12
2013-6-11,78,72,66,69,66,62,92,81,64,29.76,29.64,15,4,25,0.03
2013-6-12,81,70,60,62,59,55,91,68,43,29.83,29.71,13,4,20,0.00
2013-6-13,64,61,56,61,58,54,93,92,88,29.82,29.42,11,2,15,1.23
2013-6-14,76,61,54,64,55,50,93,82,57,29.91,29.53,16,3,21,0.10
2013-6-15,80,65,50,64,56,47,93,74,43,30.01,29.91,9,2,14,0.01
2013-6-16,80,67,53,67,59,50,92,78,53,29.99,29.77,10,2,22,0.00
2013-6-17,86,72,59,72,64,56,92,78,42,29.90,29.81,9,2,16,0.00
2013-6-18,84,68,58,73,64,55,92,86,57,29.89,29.78,6,1,12,0.36
2013-6-19,80,67,55,60,55,50,92,70,37,30.14,29.87,10,2,21,0.00
2013-6-20,81,66,50,65,57,47,92,75,49,30.24,30.14,8,1,12,0.00
2013-6-21,84,69,52,66,59,50,92,73,46,30.28,30.20,6,1,8,0.00
2013-6-22,85,70,53,70,62,50,92,79,57,30.24,30.09,7,1,12,0.00
2013-6-23,87,75,60,75,68,57,92,80,60,30.17,30.03,7,1,10,0.00
2013-6-24,90,76,67,76,69,62,91,80,53,30.06,29.94,11,1,17,0.15
2013-6-25,90,75,63,77,68,60,92,81,58,29.99,29.80,10,2,15,0.09
2013-6-26,87,76,67,72,68,64,91,79,58,29.85,29.76,10,2,13,0.01
2013-6-27,88,75,64,75,69,61,92,81,58,29.80,29.50,10,1,16,1.08
2013-6-28,85,75,67,74,69,64,92,82,62,29.52,29.44,9,2,16,0.05
2013-6-29,85,74,63,72,66,61,92,79,55,29.67,29.46,7,1,12,0.01
2013-6-30,83,74,64,76,69,61,92,86,71,29.87,29.67,6,1,12,0.00
2013-7-1,78,74,70,74,71,67,92,91,85,29.99,29.84,7,1,10,0.66
2013-7-2,84,77,72,77,72,70,92,87,73,30.14,29.99,7,1,10,0.04
2013-7-3,84,77,71,77,72,68,92,87,74,30.21,30.13,7,1,12,0.00
2013-7-4,89,79,70,78,73,67,92,83,66,30.23,30.12,8,1,16,0.00
2013-7-5,90,80,68,78,73,66,92,80,59,30.18,30.06,6,1,12,0.01
2013-7-6,92,80,69,80,73,66,92,81,55,30.12,30.00,8,1,12,0.00
2013-7-7,92,79,69,80,73,66,92,81,60,30.05,29.91,15,1,22,0.04
2013-7-8,87,75,67,75,69,65,92,84,60,30.03,29.95,9,2,18,0.12
2013-7-9,87,73,63,77,69,61,93,86,67,30.05,29.97,8,1,20,0.42
2013-7-10,87,77,68,77,72,66,92,85,67,30.00,29.79,8,1,13,0.00
2013-7-11,86,77,69,74,71,64,92,83,61,29.91,29.78,6,1,8,0.00
2013-7-12,78,71,64,70,67,62,93,86,73,30.05,29.90,8,1,12,0.11
2013-7-13,86,74,67,78,71,65,93,89,73,30.26,30.05,5,1,8,0.07
2013-7-14,90,80,71,78,73,68,92,82,61,30.32,30.22,7,1,10,0.01
2013-7-15,95,81,67,81,73,64,92,79,55,30.24,30.12,6,1,10,0.00
2013-7-16,96,80,65,78,71,63,93,75,47,30.20,30.11,6,2,12,0.00
2013-7-17,97,81,66,80,71,63,92,75,44,30.18,30.03,5,1,8,0.00
2013-7-18,98,83,70,81,75,68,92,78,50,30.06,29.94,7,1,12,0.00
2013-7-19,95,82,70,82,75,67,92,79,57,29.95,29.77,8,1,18,0.00
2013-7-20,92,80,71,78,73,68,92,80,54,29.82,29.71,11,2,16,0.00
2013-7-21,89,78,67,73,69,65,92,77,55,29.93,29.81,6,1,8,0.00
2013-7-22,88,75,67,78,70,64,92,86,66,29.93,29.76,6,1,8,0.24
2013-7-23,84,75,68,78,71,66,92,87,72,29.76,29.55,10,1,13,1.41
2013-7-24,82,71,61,70,63,54,93,77,54,29.93,29.61,9,3,13,0.01
2013-7-25,73,64,56,62,57,52,92,79,65,30.03,29.92,7,2,12,0.00
2013-7-26,83,68,56,67,60,54,93,76,48,30.04,29.98,7,1,9,0.00
2013-7-27,84,70,53,70,63,51,93,79,59,30.03,29.91,6,1,13,0.00
2013-7-28,79,69,63,73,66,61,93,91,79,29.96,29.86,6,1,13,0.87
2013-7-29,80,69,57,69,60,55,93,76,46,30.10,29.94,7,2,13,0.87
2013-7-30,81,66,51,64,58,49,93,78,50,30.17,30.09,7,1,10,0.01
2013-7-31,83,68,52,69,60,50,93,79,53,30.15,30.01,5,0,7,0.00
2013-8-1,69,66,62,67,64,60,93,92,91,30.01,29.81,9,1,17,0.53
2013-8-2,82,70,60,70,64,58,93,82,56,29.91,29.79,9,1,12,0.01
2013-8-3,76,66,59,70,63,56,93,89,76,29.90,29.83,9,1,13,0.13
2013-8-4,80,67,54,64,58,52,93,77,49,29.98,29.86,11,3,15,0.01
2013-8-5,80,63,48,64,54,46,94,76,41,30.07,29.97,8,1,12,0.00
2013-8-6,81,66,49,66,58,47,93,78,48,30.09,30.02,5,1,9,0.00
2013-8-7,76,70,64,70,66,62,93,89,76,30.10,30.01,6,1,12,0.22
2013-8-8,82,74,68,78,70,66,93,90,78,30.03,29.95,5,1,8,0.35
2013-8-9,85,76,70,78,72,67,93,90,76,29.97,29.77,8,1,13,0.26
2013-8-10,85,72,61,71,65,59,93,81,54,30.04,29.86,9,2,14,0.01
2013-8-11,82,68,54,70,61,52,94,81,54,30.12,30.00,9,1,10,0.00
2013-8-12,84,72,64,70,65,61,93,81,52,30.02,29.90,4,0,5,0.25
2013-8-13,82,70,63,73,66,61,93,88,68,29.91,29.67,17,1,24,1.11
2013-8-14,73,63,51,62,54,49,93,75,52,30.05,29.76,12,4,20,0.01
2013-8-15,80,61,44,61,53,42,94,77,39,30.14,30.05,8,1,12,0.00
2013-8-16,81,64,47,66,55,45,94,76,42,30.19,30.12,5,1,7,0.00
2013-8-17,84,66,49,68,58,47,93,78,43,30.26,30.19,4,0,6,0.01
2013-8-18,74,66,58,67,62,56,93,87,72,30.24,30.12,4,0,5,0.02
2013-8-19,75,66,57,67,61,54,93,87,66,30.13,30.02,5,0,9,0.01
2013-8-20,87,71,56,73,64,54,94,82,54,30.12,30.05,5,1,8,0.00
2013-8-21,87,71,56,75,64,54,93,80,51,30.17,30.03,5,0,8,0.01
2013-8-22,83,70,64,76,67,62,93,90,75,30.05,29.87,4,0,7,1.00
2013-8-23,81,69,59,67,62,56,94,80,50,30.09,29.88,8,1,12,0.85
2013-8-24,83,65,51,63,55,49,94,74,38,30.34,30.09,8,2,12,0.01
2013-8-25,81,63,46,65,55,44,94,79,45,30.40,30.23,6,1,8,0.01
2013-8-26,82,68,57,72,64,55,93,85,66,30.23,29.91,9,1,14,0.04
2013-8-27,91,76,67,76,69,65,93,79,54,29.91,29.83,8,2,12,0.02
2013-8-28,74,70,63,71,67,61,93,92,91,29.88,29.82,4,0,6,0.43
2013-8-29,83,71,65,74,67,62,93,89,69,30.00,29.87,5,1,9,0.01
2013-8-30,83,73,66,74,69,64,93,88,72,30.00,29.84,7,1,14,0.00
2013-8-31,86,75,65,78,71,63,93,88,73,29.85,29.76,7,1,10,0.00
2013-9-1,85,76,71,78,72,68,93,88,76,29.82,29.75,6,1,13,0.10
2013-9-2,78,71,68,74,69,66,94,92,84,29.78,29.68,11,0,15,0.79
2013-9-3,80,71,59,70,63,57,94,79,50,29.89,29.70,10,2,13,0.24
2013-9-4,81,66,56,65,59,54,94,80,49,30.00,29.88,10,2,13,0.01
2013-9-5,77,63,50,65,54,47,94,76,38,30.15,29.93,10,2,15,0.00
2013-9-6,74,56,41,55,46,39,94,74,34,30.25,30.13,7,1,8,0.01
2013-9-7,78,59,40,62,51,39,94,79,42,30.13,29.90,7,1,8,0.01
2013-9-8,81,66,49,68,58,47,94,77,39,30.07,29.82,12,3,18,0.00
2013-9-9,75,60,41,63,53,40,94,80,55,30.22,30.07,7,1,9,0.00
2013-9-10,87,74,65,77,69,61,93,86,71,30.14,30.03,6,1,10,0.00
2013-9-11,93,78,65,82,72,63,94,84,64,30.10,29.96,5,1,9,0.00
2013-9-12,86,73,66,78,69,64,93,90,73,29.97,29.67,15,1,23,0.39
2013-9-13,75,66,55,64,59,49,94,80,55,29.86,29.63,16,3,23,0.05
2013-9-14,64,55,41,51,47,39,93,76,59,30.14,29.86,16,4,20,0.00
2013-9-15,73,53,37,59,47,35,94,81,46,30.22,30.07,5,1,8,0.00
2013-9-16,71,59,50,60,53,47,94,82,55,30.25,30.02,8,2,14,0.05
2013-9-17,68,52,37,49,43,35,94,73,41,30.42,30.24,8,2,13,0.00
2013-9-18,72,51,34,55,43,32,94,78,45,30.35,30.18,7,1,9,0.00
2013-9-19,78,55,36,60,47,34,94,78,45,30.19,30.06,6,1,10,0.01
2013-9-20,81,60,42,65,53,40,94,81,46,30.08,29.95,6,1,9,0.00
2013-9-21,78,64,48,64,58,47,94,82,49,29.99,29.65,8,1,16,0.56
2013-9-22,68,60,53,60,51,43,94,74,47,29.92,29.65,13,4,18,0.16
2013-9-23,66,54,41,48,44,39,93,70,49,30.05,29.92,11,4,15,0.00
2013-9-24,76,52,34,51,44,32,94,76,37,30.06,29.89,10,2,14,0.00
2013-9-25,77,54,36,57,46,34,94,77,38,29.97,29.87,7,1,10,0.01
2013-9-26,74,55,40,61,50,38,94,83,51,30.09,29.93,6,1,10,0.00
2013-9-27,71,56,42,56,50,40,94,81,54,30.26,30.09,5,0,7,0.01
2013-9-28,74,60,46,58,52,44,94,78,46,30.31,30.23,9,1,10,0.00
2013-9-29,75,56,40,59,49,38,94,82,50,30.23,30.06,4,0,6,0.00
2013-9-30,75,55,40,59,48,38,94,80,48,30.08,29.96,5,0,8,0.01
2013-10-1,80,59,43,64,52,41,94,80,51,30.02,29.90,9,1,13,0.00
2013-10-2,84,62,44,65,55,42,94,80,50,30.02,29.92,14,2,20,0.01
2013-10-3,79,62,48,65,56,47,94,83,48,30.12,30.01,6,0,7,0.00
2013-10-4,85,67,54,70,61,52,94,83,57,30.05,29.95,8,1,13,0.00
2013-10-5,85,70,59,70,64,57,93,82,58,30.07,29.98,4,1,7,0.00
2013-10-6,70,66,64,67,64,61,93,92,90,30.05,29.97,5,2,12,0.07
2013-10-7,74,64,54,71,61,48,94,91,75,29.98,29.70,14,3,24,0.30
2013-10-8,68,53,41,52,46,39,94,79,48,30.32,29.99,8,2,13,0.00
2013-10-9,61,49,38,50,44,37,94,83,59,30.39,30.27,10,1,13,0.00
2013-10-10,58,54,49,53,50,46,92,86,79,30.27,30.06,9,3,12,0.07
2013-10-11,64,60,55,61,56,52,92,87,77,30.07,29.99,8,3,13,0.07
2013-10-12,75,64,54,57,50,38,93,65,29,30.24,30.05,9,3,21,0.00
2013-10-13,67,59,49,54,52,47,93,77,62,30.35,30.23,8,2,15,0.00
2013-10-14,72,54,39,53,47,38,94,79,46,30.35,30.21,4,0,7,0.00
2013-10-15,74,54,40,58,46,38,94,78,40,30.25,30.10,6,1,12,0.01
2013-10-16,65,56,42,59,52,40,93,88,74,30.10,29.90,5,0,7,0.00
2013-10-17,76,65,58,64,60,56,93,86,59,29.90,29.66,6,1,14,0.04
2013-10-18,66,57,39,62,46,37,93,70,48,29.98,29.67,18,5,25,0.09
2013-10-19,62,48,34,52,43,32,94,82,56,29.99,29.75,3,0,8,0.11
2013-10-20,63,49,34,50,40,33,93,73,38,30.07,29.76,12,3,18,0.00
2013-10-21,69,48,30,48,38,28,94,73,39,30.15,29.96,9,1,16,0.01
2013-10-22,63,50,35,52,43,32,94,78,47,29.96,29.75,12,2,16,0.00
2013-10-23,57,41,30,42,35,28,94,80,51,29.81,29.63,8,2,12,0.01
2013-10-24,53,42,33,37,32,27,93,71,41,30.02,29.78,13,4,20,0.00
2013-10-25,54,42,29,37,32,27,92,69,44,30.23,30.02,10,4,16,0.00
2013-10-26,55,40,23,36,30,21,94,71,42,30.23,29.89,18,1,20,0.00
2013-10-27,58,45,30,38,33,27,92,63,41,30.13,29.86,10,3,20,0.00
2013-10-28,61,38,23,39,31,22,94,79,40,30.31,30.12,9,1,14,0.00
2013-10-29,61,42,30,38,33,28,94,75,39,30.42,30.31,6,1,9,0.00
2013-10-30,58,45,29,50,41,27,94,86,74,30.35,30.17,5,0,6,0.00
2013-10-31,64,56,45,59,54,44,93,91,82,30.22,29.76,5,1,10,0.05
2013-11-1,70,61,43,64,55,41,93,82,54,29.76,29.50,12,3,26,0.23
2013-11-2,66,50,37,52,43,34,94,79,51,29.79,29.62,11,2,15,0.00
2013-11-3,51,41,26,43,31,20,94,70,40,30.46,29.79,15,5,21,0.01
2013-11-4,49,33,18,26,21,16,92,66,29,30.66,30.46,8,1,13,0.00
2013-11-5,56,42,26,43,35,23,93,77,56,30.65,30.46,8,1,12,0.00
2013-11-6,63,53,44,50,46,40,91,79,61,30.48,30.05,6,1,9,0.00
2013-11-7,59,50,37,56,46,32,93,87,69,30.05,29.76,15,3,20,0.12
2013-11-8,48,40,34,37,31,27,89,69,52,30.22,29.94,19,5,22,0.01
2013-11-9,51,39,25,35,29,22,93,70,43,30.30,29.97,10,1,13,0.00
2013-11-10,56,44,29,39,32,26,93,66,48,30.08,29.85,16,6,32,0.00
2013-11-11,54,43,33,36,30,25,75,60,48,30.21,29.95,16,4,23,0.00
2013-11-12,49,35,25,37,23,16,84,63,52,30.31,29.92,15,7,23,0.00
2013-11-13,41,28,21,21,17,14,84,67,38,30.39,30.28,18,4,20,0.00
2013-11-14,51,36,24,22,20,17,77,55,27,30.28,30.18,13,3,20,0.00
2013-11-15,57,36,21,33,24,17,88,66,28,30.25,30.15,8,1,12,0.00
2013-11-16,62,46,32,48,40,28,93,81,53,30.33,30.24,5,1,8,0.04
2013-11-17,63,55,48,58,52,46,93,91,84,30.25,29.74,7,2,13,0.03
2013-11-18,63,56,45,60,42,28,93,61,33,29.82,29.59,21,6,24,0.19
2013-11-19,47,40,31,31,26,22,70,56,47,30.36,29.81,19,8,26,0.00
2013-11-20,49,33,20,24,19,10,83,59,24,30.62,30.36,9,3,15,0.00
2013-11-21,51,36,17,40,28,14,91,76,56,30.61,30.38,7,1,12,0.00
2013-11-22,54,49,45,49,46,40,93,88,82,30.38,29.93,10,2,14,0.03
2013-11-23,52,39,26,48,26,8,88,62,44,30.09,29.92,27,8,35,0.01
2013-11-24,28,23,20,11,5,2,56,45,37,30.41,30.06,23,10,33,0.00
2013-11-25,35,26,16,18,13,7,81,58,45,30.50,30.32,10,3,13,0.00
2013-11-26,45,33,30,43,26,15,94,75,53,30.33,29.70,9,1,15,0.76
2013-11-27,57,42,31,55,38,20,94,87,63,29.80,29.39,18,7,26,0.99
2013-11-28,36,29,22,24,18,14,87,65,43,30.47,29.80,17,6,24,0.00
2013-11-29,38,28,19,26,21,14,92,76,56,30.74,30.46,10,2,13,0.00
2013-11-30,36,26,12,29,20,9,93,78,55,30.75,30.38,7,1,10,0.00
2013-12-1,47,34,22,34,28,-100,94,81,57,30.38,30.02,6,-3,8,0.00
2013-12-2,48,35,26,35,30,24,93,83,59,30.02,29.88,3,0,6,0.00
2013-12-3,52,36,26,39,31,24,94,83,54,30.02,29.88,6,1,11,0.00
2013-12-4,50,42,26,43,37,25,94,86,70,30.12,30.01,5,1,7,0.00
2013-12-5,55,50,46,53,48,43,94,93,89,30.10,29.92,4,1,7,0.03
2013-12-6,58,45,35,56,42,34,94,92,84,30.17,29.85,17,4,21,0.67
2013-12-7,38,32,23,34,28,20,94,84,66,30.52,30.09,12,4,16,0.02
2013-12-8,30,26,18,27,21,15,94,82,65,30.59,30.35,6,2,9,0.00
2013-12-9,35,33,29,33,31,27,95,94,94,30.35,29.98,7,2,10,0.36
2013-12-10,32,30,24,31,27,16,95,89,68,30.13,29.90,10,3,15,0.01
2013-12-11,32,24,16,18,16,11,90,71,55,30.34,30.13,11,3,16,0.00
2013-12-12,26,21,10,18,10,2,82,63,46,30.37,30.16,14,4,20,0.00
2013-12-13,34,21,3,20,13,0,91,72,53,30.33,30.14,13,2,20,0.00
2013-12-14,30,24,21,28,21,19,94,87,78,30.46,29.76,8,3,12,0.00
2013-12-15,37,30,23,32,26,20,94,83,66,29.84,29.56,17,4,24,0.01
2013-12-16,30,21,6,22,10,3,89,65,45,30.23,29.84,15,4,22,0.00
2013-12-17,24,18,8,22,15,6,92,88,83,30.21,29.95,5,1,8,0.00
2013-12-18,36,21,3,24,15,0,94,80,60,30.20,29.95,16,3,21,0.00
2013-12-19,39,24,10,28,19,7,93,82,59,30.19,30.05,6,1,8,0.03
2013-12-20,50,35,24,37,29,22,93,82,54,30.12,29.97,4,1,6,0.24
2013-12-21,60,41,31,48,37,30,94,86,60,30.01,29.88,6,1,7,0.00
2013-12-22,67,59,42,61,56,40,94,90,80,29.94,29.78,9,2,16,0.03
2013-12-23,57,50,37,55,47,29,94,91,74,30.16,29.89,16,3,24,0.62
2013-12-24,38,32,22,30,23,13,90,71,61,30.38,30.11,18,6,26,0.00
2013-12-25,26,21,14,17,11,7,76,65,54,30.54,30.38,18,3,22,0.00
2013-12-26,33,25,17,28,21,14,93,85,72,30.42,30.18,9,2,12,0.02
2013-12-27,40,26,15,27,20,13,94,80,54,30.37,30.27,11,2,14,0.01
2013-12-28,52,31,16,33,24,14,94,79,43,30.29,30.08,12,2,16,0.00
2013-12-29,41,36,28,40,34,25,94,92,88,30.08,29.47,12,3,16,0.97
2013-12-30,43,33,20,37,27,13,94,79,66,30.17,29.72,14,5,22,0.00
2013-12-31,30,23,12,26,15,9,92,73,57,30.30,30.06,19,4,27,0.01
2014-1-1,32,25,14,23,18,9,89,75,62,30.41,30.22,9,1,13,0.00
2014-1-2,29,24,20,23,20,9,90,84,75,30.22,29.71,9,5,15,0.00